Temp
83 85 85 86 87 88 88 88 85 85 86 86 85 85 84 84 84 84 83 83 83 82
82 83 84 85 86 87 87 91 85 86 86 85 85 84 83 82 82 83 83 83 83 82
82 83 84 83 85 85 87 87 85 85 85 85 86 86 82 83 83 82 82 84 82 82
83 83 83 85 84 85 85 87 87 87 86 85 85 85 84 83 83 81 81 82 83 81
84 83 83 83 85 86 85 85 87 86 86 85 85 84 83 83 85 83 82 83 83 83
84 84 83 82 84 85 84 85 86 86 84 85 85 84 84 84 83 84 84 84 83 83
83 84 85 84 82 85 85 84 85 84 84 85 85 85 85 85 83 84 85 85 84 84
85 85 84 84 83 83 85 85 84 84 84 85 86 89 84 84 84 83 84 85 85 85
85 84 84 84 84 83 84 84 84 83 84 84 88 79 74 81 84 84 83 82 83 85
85 84 83 84 83 83 82 84 83 83 84 83 84 73 71 73 85 84 83 83 83 85
85 84 83 83 83 83 83 83 83 83 83 84 85 72 69 70 82 83 83 83 83 83
86 84 84 82 82 83 83 83 83 84 83 83 83 68 68 69 80 83 81 83 83 83
87 85 84 83 83 83 84 84 86 85 85 80 83 69 65 69 85 82 83 82 81 72
88 86 85 84 84 84 84 84 83 83 85 85 83 83 63 61 82 84 84 85 85 86
MSLP
1014.36 1014.59 1014.86 1014.89 1014.90 1015.28 1015.60 1015.68 1016.17 1016.59 1017.08 1017.51 1017.95 1018.08 1018.40 1018.83 1019.07 1019.18 1019.25 1019.27 1019.19 1019.27
1013.79 1014.17 1014.38 1014.57 1014.74 1014.98 1015.06 1015.16 1015.63 1016.09 1016.74 1017.15 1017.60 1017.94 1018.27 1018.78 1018.94 1019.06 1019.20 1019.26 1019.21 1019.29
1013.18 1013.59 1014.03 1014.39 1014.58 1014.80 1014.93 1014.97 1015.80 1015.93 1016.35 1016.76 1017.12 1017.44 1018.08 1018.47 1018.74 1019.04 1019.13 1019.07 1019.08 1019.04
1012.57 1013.09 1013.59 1013.85 1014.36 1014.47 1014.81 1014.96 1015.26 1015.70 1016.01 1016.53 1016.96 1017.28 1017.68 1017.98 1018.23 1018.63 1018.71 1018.74 1018.81 1018.92
1011.55 1012.43 1012.89 1013.28 1013.54 1014.06 1014.37 1014.72 1014.96 1015.38 1015.81 1016.20 1016.60 1016.98 1017.30 1017.63 1017.74 1018.00 1018.23 1018.34 1018.44 1018.54
1010.65 1011.32 1011.93 1012.53 1012.79 1013.34 1013.91 1014.23 1014.70 1015.02 1015.45 1015.80 1016.19 1016.54 1016.89 1017.18 1017.45 1017.59 1017.70 1017.84 1017.90 1018.02
1009.39 1010.05 1010.87 1011.60 1012.38 1012.57 1013.17 1013.70 1014.04 1014.53 1014.94 1015.33 1015.67 1016.00 1016.34 1016.61 1016.92 1017.16 1017.28 1017.34 1017.50 1017.59
1008.31 1009.29 1010.13 1010.83 1011.46 1012.08 1012.38 1012.88 1013.42 1013.88 1014.28 1014.72 1015.06 1015.35 1015.73 1016.06 1016.31 1016.62 1016.79 1016.82 1016.92 1017.02
1007.54 1008.50 1009.23 1010.01 1010.58 1011.23 1011.74 1012.17 1012.75 1013.09 1013.48 1013.86 1014.16 1014.43 1014.80 1015.33 1015.67 1015.83 1016.18 1016.36 1016.49 1016.49
1006.32 1007.37 1008.30 1009.14 1009.87 1010.29 1010.88 1011.40 1011.82 1012.38 1012.71 1013.01 1013.35 1013.64 1014.01 1014.47 1014.94 1015.18 1015.32 1015.55 1015.83 1016.00
1005.19 1006.10 1007.26 1008.22 1008.85 1009.48 1010.06 1010.54 1010.94 1011.42 1011.85 1012.25 1012.50 1012.88 1013.34 1013.77 1014.28 1014.42 1014.54 1014.71 1015.02 1015.26
1004.04 1005.14 1006.12 1007.07 1007.82 1008.58 1009.27 1009.80 1010.12 1010.56 1011.00 1011.41 1011.77 1012.12 1012.58 1013.30 1013.78 1013.79 1013.85 1013.98 1014.22 1014.44
1003.40 1004.38 1005.20 1005.99 1006.80 1007.62 1008.34 1008.73 1009.25 1009.61 1009.98 1010.48 1010.92 1011.36 1011.78 1012.40 1012.84 1013.05 1013.13 1013.17 1013.35 1013.58
1002.46 1003.30 1004.20 1005.29 1006.16 1006.84 1007.41 1007.93 1008.41 1008.68 1009.04 1009.50 1010.01 1010.42 1010.92 1011.48 1011.95 1011.99 1012.16 1012.25 1012.20 1012.35
Wind_Speed
12 9 8 6 6 6 8 8 12 9 8 6 6 5 5 3 3 4 3 5 2 3
13 12 10 7 5 6 5 2 14 12 8 8 7 7 8 5 5 3 3 5 3 3
16 16 9 10 7 7 5 6 10 12 11 8 7 6 8 6 6 6 5 4 6 5
17 16 15 11 11 10 8 5 6 6 6 8 8 7 7 6 5 10 7 6 5 7
17 18 17 15 15 12 12 9 5 7 6 7 7 7 8 9 7 9 8 8 6 8
19 18 19 19 15 15 12 10 10 7 9 8 9 8 9 9 10 8 8 8 7 7
21 20 19 17 18 14 15 14 12 11 10 10 10 10 10 11 10 9 8 9 9 8
19 19 18 17 17 18 15 15 14 13 13 13 12 10 11 10 11 11 10 8 8 8
19 19 18 17 17 17 17 16 15 15 15 14 11 14 15 13 11 11 11 10 9 8
19 19 20 18 17 17 18 16 16 16 15 15 15 14 15 17 12 11 9 10 10 10
18 20 19 18 19 17 16 17 16 16 16 15 14 15 14 14 13 11 10 10 11 10
19 18 19 20 19 16 16 15 16 15 16 16 14 16 17 12 9 12 11 10 10 9
17 17 19 19 18 17 16 16 13 16 16 16 16 14 17 15 10 11 10 11 12 14
16 18 18 16 15 16 16 15 16 16 14 16 16 15 17 19 13 11 10 11 10 11
Wind_Direction
198 213 216 218 201 180 195 191 176 179 172 182 184 187 163 198 219 223 217 285 308 326
197 209 206 214 210 205 240 230 160 170 172 181 185 201 161 219 197 193 204 220 245 249
200 196 204 215 209 215 230 233 169 173 175 179 189 199 167 211 189 190 211 233 201 232
196 202 204 204 213 200 222 253 162 166 168 175 196 195 195 222 220 188 202 234 213 203
197 198 199 211 197 201 205 206 208 179 183 186 199 201 200 208 236 193 205 216 225 208
200 198 204 203 208 198 204 200 201 196 199 198 204 207 205 204 219 245 207 216 216 222
198 201 203 199 205 200 197 204 202 207 205 210 207 210 214 204 209 223 237 214 220 225
199 201 199 201 196 207 203 200 202 202 210 209 212 212 210 214 208 214 225 232 223 222
193 197 201 203 201 198 206 204 200 205 207 208 213 212 204 199 218 208 213 225 241 247
189 194 200 198 204 202 201 203 203 207 208 210 213 213 207 201 208 216 220 214 221 231
192 193 192 200 204 206 202 205 205 206 211 213 214 205 209 199 211 213 219 216 220 227
191 192 191 197 201 203 204 205 208 209 208 213 221 202 205 179 203 222 223 224 233 237
191 192 194 195 198 199 203 208 206 209 212 212 218 206 204 191 216 218 226 228 230 227
191 194 191 192 196 199 204 207 209 212 212 213 214 217 195 195 211 220 222 230 230 226